When you browse on this site, cookies collect data to enhance your experience and personalize the content and advertising you see.
Visit our Privacy Policy to learn more. By continuing to use the site, you agree to this use of cookies and data.
  • In Austria
  • List of Countries
  • For 7 days
  • Water Temperature
  • Satellite Maps
  • Weather Map
  • News
  • Weather Widgets
  • user-avatar
    Login

    Hourly Weather Multan

    Today, 11 December, Tuesday

    Time Temperature Precipitation Wind Pressure Humidity
    00:00 +16°C° 0 mm 3 mps 752 mmHg 51%
    01:00 +14°C° 0 mm 3 mps 752 mmHg 53%
    02:00 +14°C° 0 mm 3 mps 752 mmHg 55%
    03:00 +13°C° 0 mm 3 mps 752 mmHg 57%
    04:00 +13°C° 0 mm 3 mps 752 mmHg 60%
    05:00 +13°C° 0 mm 3 mps 751 mmHg 62%
    06:00 +13°C° 0 mm 3 mps 752 mmHg 62%
    07:00 +13°C° 0 mm 3 mps 752 mmHg 61%
    08:00 +13°C° 0 mm 3 mps 753 mmHg 61%
    09:00 +15°C° 0 mm 4 mps 753 mmHg 54%
    10:00 +19°C° 0 mm 4 mps 753 mmHg 46%
    11:00 +21°C° 0 mm 4 mps 753 mmHg 38%
    12:00 +22°C° 0 mm 4 mps 752 mmHg 36%
    13:00 +22°C° 0 mm 4 mps 752 mmHg 34%
    14:00 +23°C° 0 mm 4 mps 751 mmHg 32%
    15:00 +22°C° 0 mm 4 mps 751 mmHg 34%
    16:00 +21°C° 0 mm 3 mps 751 mmHg 36%
    17:00 +20°C° 0 mm 3 mps 751 mmHg 38%
    18:00 +19°C° 0 mm 3 mps 752 mmHg 41%
    19:00 +18°C° 0 mm 3 mps 752 mmHg 44%
    20:00 +17°C° 0 mm 3 mps 753 mmHg 48%
    21:00 +17°C° 0 mm 3 mps 753 mmHg 49%
    22:00 +16°C° 0 mm 3 mps 753 mmHg 50%
    23:00 +16°C° 0 mm 3 mps 753 mmHg 51%

    Tomorrow, 12 December, Wednesday

    Time Temperature Precipitation Wind Pressure Humidity
    00:00 +14°C° 0 mm 3 mps 753 mmHg 52%
    01:00 +14°C° 0 mm 3 mps 753 mmHg 53%
    02:00 +13°C° 0 mm 3 mps 753 mmHg 55%
    03:00 +13°C° 0 mm 3 mps 753 mmHg 57%
    04:00 +13°C° 0 mm 3 mps 753 mmHg 59%
    05:00 +12°C° 0 mm 3 mps 753 mmHg 60%
    06:00 +12°C° 0 mm 3 mps 753 mmHg 60%
    07:00 +13°C° 0 mm 3 mps 754 mmHg 59%
    08:00 +13°C° 0 mm 3 mps 754 mmHg 58%
    09:00 +16°C° 0 mm 3 mps 755 mmHg 50%
    10:00 +18°C° 0 mm 4 mps 755 mmHg 41%
    11:00 +21°C° 0 mm 4 mps 755 mmHg 32%
    12:00 +22°C° 0 mm 4 mps 755 mmHg 29%
    13:00 +22°C° 0 mm 4 mps 754 mmHg 26%
    14:00 +23°C° 0 mm 4 mps 754 mmHg 23%
    15:00 +22°C° 0 mm 4 mps 753 mmHg 24%
    16:00 +21°C° 0 mm 3 mps 753 mmHg 25%
    17:00 +20°C° 0 mm 3 mps 753 mmHg 26%
    18:00 +19°C° 0 mm 3 mps 754 mmHg 28%
    19:00 +17°C° 0 mm 3 mps 754 mmHg 29%
    20:00 +16°C° 0 mm 2 mps 755 mmHg 30%
    21:00 +16°C° 0 mm 2 mps 755 mmHg 31%
    22:00 +15°C° 0 mm 2 mps 755 mmHg 32%
    23:00 +15°C° 0 mm 2 mps 755 mmHg 32%

    Day after tomorrow, 13 December, Thursday

    Time Temperature Precipitation Wind Pressure Humidity
    00:00 +13°C° 0 mm 3 mps 755 mmHg 34%
    01:00 +13°C° 0 mm 3 mps 755 mmHg 35%
    02:00 +13°C° 0 mm 3 mps 755 mmHg 36%
    03:00 +12°C° 0 mm 3 mps 755 mmHg 36%
    04:00 +12°C° 0 mm 3 mps 755 mmHg 36%
    05:00 +12°C° 0 mm 3 mps 755 mmHg 37%
    06:00 +12°C° 0 mm 3 mps 755 mmHg 36%
    07:00 +12°C° 0 mm 3 mps 756 mmHg 34%
    08:00 +13°C° 0 mm 3 mps 757 mmHg 33%
    09:00 +16°C° 0 mm 3 mps 757 mmHg 28%
    10:00 +19°C° 0 mm 3 mps 757 mmHg 24%
    11:00 +21°C° 0 mm 3 mps 757 mmHg 19%
    12:00 +22°C° 0 mm 3 mps 756 mmHg 18%
    13:00 +24°C° 0 mm 3 mps 756 mmHg 17%
    14:00 +25°C° 0 mm 3 mps 755 mmHg 16%
    15:00 +22°C° 0 mm 3 mps 755 mmHg 18%
    16:00 +21°C° 0 mm 3 mps 755 mmHg 19%
    17:00 +20°C° 0 mm 2 mps 755 mmHg 20%
    18:00 +19°C° 0 mm 2 mps 755 mmHg 22%
    19:00 +17°C° 0 mm 2 mps 756 mmHg 23%
    20:00 +16°C° 0 mm 2 mps 756 mmHg 25%
    21:00 +16°C° 0 mm 2 mps 756 mmHg 26%
    22:00 +15°C° 0 mm 2 mps 756 mmHg 27%
    23:00 +15°C° 0 mm 2 mps 756 mmHg 28%

    14 December, Friday

    Time Temperature Precipitation Wind Pressure Humidity
    00:00 +14°C° 0 mm 2 mps 756 mmHg 29%
    01:00 +14°C° 0 mm 1 mps 756 mmHg 29%
    02:00 +13°C° 0 mm 1 mps 756 mmHg 30%
    03:00 +13°C° 0 mm 1 mps 756 mmHg 31%
    04:00 +13°C° 0 mm 1 mps 756 mmHg 31%
    05:00 +12°C° 0 mm 1 mps 756 mmHg 32%
    06:00 +13°C° 0 mm 1 mps 756 mmHg 31%
    07:00 +13°C° 0 mm 1 mps 757 mmHg 30%
    08:00 +13°C° 0 mm 1 mps 757 mmHg 29%
    09:00 +16°C° 0 mm 1 mps 758 mmHg 25%
    10:00 +18°C° 0 mm 2 mps 758 mmHg 21%
    11:00 +21°C° 0 mm 2 mps 758 mmHg 16%
    12:00 +23°C° 0 mm 2 mps 757 mmHg 15%
    13:00 +23°C° 0 mm 2 mps 757 mmHg 14%
    14:00 +24°C° 0 mm 2 mps 756 mmHg 13%
    15:00 +23°C° 0 mm 2 mps 756 mmHg 14%
    16:00 +21°C° 0 mm 2 mps 756 mmHg 14%
    17:00 +20°C° 0 mm 2 mps 756 mmHg 15%
    18:00 +18°C° 0 mm 2 mps 756 mmHg 16%
    19:00 +17°C° 0 mm 2 mps 757 mmHg 17%
    20:00 +16°C° 0 mm 2 mps 757 mmHg 18%
    21:00 +15°C° 0 mm 2 mps 757 mmHg 19%
    22:00 +15°C° 0 mm 2 mps 757 mmHg 19%
    23:00 +14°C° 0 mm 2 mps 757 mmHg 20%

    15 December, Saturday

    Time Temperature Precipitation Wind Pressure Humidity
    00:00 +14°C° 0 mm 2 mps 757 mmHg 21%
    01:00 +14°C° 0 mm 2 mps 757 mmHg 22%
    02:00 +13°C° 0 mm 2 mps 757 mmHg 24%
    03:00 +13°C° 0 mm 2 mps 757 mmHg 24%
    04:00 +12°C° 0 mm 2 mps 757 mmHg 25%
    05:00 +12°C° 0 mm 1 mps 757 mmHg 26%
    06:00 +12°C° 0 mm 1 mps 757 mmHg 25%
    07:00 +12°C° 0 mm 1 mps 757 mmHg 25%
    08:00 +13°C° 0 mm 1 mps 758 mmHg 24%
    09:00 +15°C° 0 mm 1 mps 758 mmHg 20%
    10:00 +19°C° 0 mm 1 mps 758 mmHg 17%
    11:00 +22°C° 0 mm 1 mps 758 mmHg 13%
    12:00 +23°C° 0 mm 1 mps 757 mmHg 13%
    13:00 +24°C° 0 mm 1 mps 757 mmHg 12%
    14:00 +24°C° 0 mm 1 mps 756 mmHg 11%
    15:00 +23°C° 0 mm 1 mps 756 mmHg 12%
    16:00 +22°C° 0 mm 1 mps 756 mmHg 12%
    17:00 +20°C° 0 mm 1 mps 756 mmHg 13%
    18:00 +19°C° 0 mm 1 mps 757 mmHg 14%
    19:00 +18°C° 0 mm 1 mps 757 mmHg 15%
    20:00 +16°C° 0 mm 1 mps 757 mmHg 15%
    21:00 +15°C° 0 mm 1 mps 757 mmHg 15%
    22:00 +14°C° 0 mm 1 mps 757 mmHg 16%
    23:00 +14°C° 0 mm 1 mps 757 mmHg 16%

    16 December, Sunday

    Time Temperature Precipitation Wind Pressure Humidity
    00:00 +13°C° 0 mm 1 mps 757 mmHg 16%
    01:00 +13°C° 0 mm 1 mps 757 mmHg 16%
    02:00 +13°C° 0 mm 1 mps 757 mmHg 17%
    03:00 +13°C° 0 mm 1 mps 757 mmHg 17%
    04:00 +12°C° 0 mm 2 mps 757 mmHg 17%
    05:00 +12°C° 0 mm 2 mps 756 mmHg 18%
    06:00 +12°C° 0 mm 1 mps 757 mmHg 17%
    07:00 +12°C° 0 mm 1 mps 757 mmHg 17%
    08:00 +13°C° 0 mm 1 mps 758 mmHg 17%
    09:00 +15°C° 0 mm 1 mps 758 mmHg 15%
    10:00 +19°C° 0 mm 1 mps 758 mmHg 12%
    11:00 +22°C° 0 mm 1 mps 758 mmHg 9%
    12:00 +23°C° 0 mm 1 mps 757 mmHg 8%
    13:00 +24°C° 0 mm 1 mps 756 mmHg 7%
    14:00 +25°C° 0 mm 2 mps 755 mmHg 6%
    15:00 +23°C° 0 mm 1 mps 755 mmHg 7%
    16:00 +22°C° 0 mm 1 mps 755 mmHg 8%
    17:00 +20°C° 0 mm 1 mps 755 mmHg 9%
    18:00 +19°C° 0 mm 1 mps 755 mmHg 10%
    19:00 +18°C° 0 mm 1 mps 755 mmHg 10%
    20:00 +15°C° 0 mm 1 mps 756 mmHg 11%
    21:00 +15°C° 0 mm 1 mps 756 mmHg 12%
    22:00 +14°C° 0 mm 1 mps 755 mmHg 12%
    23:00 +13°C° 0 mm 0 mps 755 mmHg 12%
    Show more